EW9119 Weather Reports


Display with metric or nautical units.
time (UTC)temp
F
wind
direction
speed
MPH
gust
MPH
rain 1hr
in
rain 24hr
in
rain mn
in
humidity
%
barometer
mb
20260902053024 74 302 0.0 0.0 0.00 0.00 0.00 13 1015.3
20260902051522 75 302 0.0 0.0 0.00 0.00 0.00 17 1015.3
20260902050021 75 302 0.0 0.0 0.00 0.00 0.00 31 1015.1
20260902044524 75 302 0.0 0.0 0.00 0.00 0.00 37 1015.0
20260902043012 75 302 0.0 0.0 0.00 0.00 0.00 43 1014.9
20260902041509 75 302 0.0 0.0 0.00 0.00 0.00 50 1015.0
20260902040009 75 302 0.0 0.0 0.00 0.00 0.00 50 1015.1
20260902034502 76 302 0.0 0.0 0.00 0.00 0.00 54 1015.0
20260902033057 76 302 0.0 0.0 0.00 0.00 0.00 56 1015.0
20260902031600 76 302 0.0 0.0 0.00 0.00 0.00 62 1014.8
20260902030052 76 302 0.0 0.0 0.00 0.00 0.00 63 1014.8
20260902024552 77 302 0.0 0.0 0.00 0.00 0.00 66 1014.8
20260902023044 77 302 0.0 0.0 0.00 0.00 0.00 68 1014.8
20260902021538 78 302 0.0 0.0 0.00 0.00 0.00 69 1014.7
20260902020039 78 302 0.0 0.0 0.00 0.00 0.00 70 1014.6
20260902014537 79 302 0.0 0.0 0.00 0.00 0.00 70 1014.4
20260902013030 80 302 0.0 0.0 0.00 0.00 0.00 70 1014.2
20260902011529 80 302 0.0 0.0 0.00 0.00 0.00 69 1014.1
20260902010022 81 302 0.0 0.0 0.00 0.00 0.00 68 1014.0
20260902004518 82 302 0.0 0.0 0.00 0.00 0.00 67 1013.8
20260902003013 83 302 0.0 0.0 0.00 0.00 0.00 66 1013.8
20260902001510 85 302 0.0 0.0 0.00 0.00 0.00 63 1013.8
20260902000007 86 304 0.0 0.0 0.00 0.00 0.00 61 1013.8
20260901234608 87 304 0.0 0.0 0.00 0.00 0.00 60 1013.8
20260901233055 89 304 0.0 0.0 0.00 0.00 0.00 58 1013.7
20260901231557 90 304 0.0 0.0 0.00 0.00 0.00 55 1014.0
20260901224543 91 304 0.0 0.0 0.00 0.00 0.00 53 1014.1
20260901223038 92 304 0.0 0.0 0.00 0.00 0.00 50 1014.1
20260901221535 92 304 0.0 0.0 0.00 0.00 0.00 47 1014.1
20260901220029 92 292 0.0 0.0 0.00 0.00 0.00 47 1014.1
20260901214525 93 308 0.0 0.0 0.00 0.00 0.00 47 1014.1
20260901213026 92 275 0.0 0.0 0.00 0.00 0.00 46 1014.1
20260901211516 93 323 0.0 0.0 0.00 0.00 0.00 48 1014.0
20260901210014 93 341 0.0 0.0 0.00 0.00 0.00 45 1014.2
20260901204512 93 288 0.0 0.0 0.00 0.00 0.00 45 1014.4
20260901203005 93 167 0.0 0.0 0.00 0.00 0.00 45 1014.4
20260901201558 93 286 0.0 0.0 0.00 0.00 0.00 45 1014.4
20260901200054 94 270 0.0 0.0 0.00 0.00 0.00 44 1014.5
20260901194554 94 286 0.0 0.0 0.00 0.00 0.00 44 1014.5
20260901193045 94 333 0.0 0.0 0.00 0.00 0.00 44 1014.6
20260901191543 93 331 0.0 0.0 0.00 0.00 0.00 44 1014.9
20260901190039 94 299 0.0 0.0 0.00 0.00 0.00 43 1015.0
20260901184532 93 257 0.0 0.0 0.00 0.00 0.00 44 1015.0
20260901183047 93 323 0.0 0.0 0.00 0.00 0.00 44 1015.1
20260901181523 93 20 0.0 0.0 0.00 0.00 0.00 45 1015.2
20260901180021 93 300 0.0 0.0 0.00 0.00 0.00 46 1015.3
20260901174514 94 317 0.0 0.0 0.00 0.00 0.00 45 1015.5
20260901173010 93 271 0.0 0.0 0.00 0.00 0.00 46 1015.5
20260901171506 94 355 0.0 0.0 0.00 0.00 0.00 46 1015.6
20260901170001 93 316 0.0 0.0 0.00 0.00 0.00 47 1015.7
20260901164557 92 282 0.0 0.0 0.00 0.00 0.00 47 1016.0
20260901163110 92 302 0.0 0.0 0.00 0.00 0.00 48 1016.2
20260901161604 92 316 0.0 0.0 0.00 0.00 0.00 48 1016.3
20260901160054 91 313 0.0 0.0 0.00 0.00 0.00 52 1016.4
20260901154547 91 301 0.0 0.0 0.00 0.00 0.00 54 1016.6
20260901153040 90 323 0.0 0.0 0.00 0.00 0.00 55 1016.8
20260901151549 91 300 0.0 0.0 0.00 0.00 0.00 56 1017.0
20260901150032 89 346 0.0 0.0 0.00 0.00 0.00 58 1017.0
20260901144527 88 318 0.0 0.0 0.00 0.00 0.00 63 1017.2
20260901143022 86 317 0.0 0.0 0.00 0.00 0.00 62 1017.3
20260901141528 85 360 0.0 0.0 0.00 0.00 0.00 63 1017.3
20260901140013 84 323 0.0 0.0 0.00 0.00 0.00 68 1017.2
20260901134511 83 322 0.0 0.0 0.00 0.00 0.00 68 1017.3
20260901133004 81 311 0.0 0.0 0.00 0.00 0.00 68 1017.3
20260901131600 80 120 0.0 0.0 0.00 0.00 0.00 65 1017.3
20260901130059 79 142 0.0 0.0 0.00 0.00 0.00 60 1017.4
20260901124551 77 142 0.0 0.0 0.00 0.00 0.00 36 1017.5
20260901123047 75 142 0.0 0.0 0.00 0.00 0.00 1 1017.4
20260901121543 72 142 0.0 0.0 0.00 0.00 0.00 1 1017.2
20260901120041 70 142 0.0 0.0 0.00 0.00 0.00 1 1017.1
20260901114535 70 142 0.0 0.0 0.00 0.00 0.00 1 1017.0
20260901113033 70 142 0.0 0.0 0.00 0.00 0.00 1 1016.8
20260901111526 70 142 0.0 0.0 0.00 0.00 0.00 1 1016.6
20260901110023 70 142 0.0 0.0 0.00 0.00 0.00 1 1016.6
20260901104525 70 142 0.0 0.0 0.00 0.00 0.00 1 1016.4
20260901103021 70 142 0.0 0.0 0.00 0.00 0.00 1 1016.4
20260901101519 70 142 0.0 0.0 0.00 0.00 0.00 1 1016.2
20260901100015 70 142 0.0 0.0 0.00 0.00 0.00 1 1016.3
20260901094511 70 142 0.0 0.0 0.00 0.00 0.00 1 1016.2
20260901093006 70 142 0.0 0.0 0.00 0.00 0.00 1 1016.2
20260901091501 70 142 0.0 0.0 0.00 0.00 0.00 1 1016.2
20260901084621 71 142 0.0 0.0 0.00 0.00 0.00 1 1016.0
20260901083049 71 142 0.0 0.0 0.00 0.00 0.00 1 1016.0
20260901081545 71 142 0.0 0.0 0.00 0.00 0.00 1 1016.1
20260901080055 71 142 0.0 0.0 0.00 0.00 0.00 1 1016.2
20260901074536 71 142 0.0 0.0 0.00 0.00 0.00 1 1016.2
20260901073043 72 142 0.0 0.0 0.00 0.00 0.00 1 1016.5
20260901071528 72 142 0.0 0.0 0.00 0.00 0.00 1 1016.5
20260901070023 72 142 0.0 0.0 0.00 0.00 0.00 1 1016.6
20260901064519 72 142 0.0 0.0 0.00 0.00 0.00 1 1016.6
20260901063020 72 142 0.0 0.0 0.00 0.00 0.00 1 1016.7
20260901061510 72 142 0.0 0.0 0.00 0.00 0.00 1 1016.6
20260901060017 73 142 0.0 0.0 0.00 0.00 0.00 1 1016.6
20260901054502 73 142 0.0 0.0 0.00 0.00 0.00 1 1016.8